Wind_Speed
10 7 6 6 5 3 3 3 2 0 2 3 4 5 6 6 6 7 7 8 8 8 9 9 10 10 9 10 10 9 9 8 8 7 7 7 7 7 6 6 6 6 5 5
10 8 7 7 6 4 5 4 3 3 1 2 2 3 4 4 6 5 6 6 6 7 7 7 8 8 8 8 8 8 9 8 7 7 7 7 7 7 7 7 7 6 6 5
11 9 8 8 7 6 5 5 5 4 3 1 2 2 3 3 5 4 5 5 5 5 6 6 6 7 7 7 7 7 7 7 6 6 7 7 7 6 7 7 7 7 6 6
12 11 10 10 8 5 4 5 5 6 4 3 4 4 3 3 3 4 5 5 4 4 5 5 5 6 7 7 7 7 7 6 6 6 6 6 5 6 6 6 6 6 7 7
13 13 12 11 8 7 6 5 5 6 6 5 5 5 3 3 3 4 5 4 3 4 3 4 4 5 6 6 6 7 6 6 5 5 5 6 5 6 6 5 6 6 7 8
13 14 14 12 11 11 9 9 9 8 9 8 6 6 4 4 3 5 6 5 5 4 3 3 3 3 4 5 5 6 6 6 5 5 5 5 5 6 6 6 5 6 7 8
16 16 14 13 12 12 12 11 11 11 11 10 8 8 5 4 5 5 5 5 5 4 3 3 3 3 3 4 5 6 5 5 5 5 5 5 5 5 6 6 6 6 7 8
17 16 14 13 12 12 11 12 12 12 12 10 9 8 6 5 6 6 6 5 6 6 4 3 3 4 3 4 5 6 5 5 5 5 4 5 5 5 5 6 6 7 8 8
17 15 14 14 14 13 13 13 14 14 13 13 11 9 8 8 8 7 7 7 7 6 5 5 4 3 4 5 5 6 6 5 5 5 5 5 6 6 7 7 8 8 9 9
18 17 17 17 17 15 15 14 15 15 16 15 14 11 9 10 10 8 9 8 8 8 6 5 5 5 4 5 6 6 6 6 6 6 6 7 7 7 8 8 8 9 10 10
20 20 19 19 19 17 16 16 16 16 17 16 16 13 12 11 10 10 10 10 9 8 6 6 7 7 6 6 7 7 7 7 7 7 8 8 8 9 9 9 10 10 11 12
22 22 21 21 20 19 18 18 18 18 18 17 17 15 13 13 12 13 12 11 10 8 6 8 9 9 9 9 8 9 9 9 9 9 10 10 10 11 11 11 11 11 12 13
23 23 23 23 22 22 21 19 18 18 18 18 18 16 16 16 15 14 13 11 10 10 9 10 10 11 11 11 10 10 10 11 11 11 11 11 12 13 13 12 12 12 13 14
25 25 24 23 22 23 23 21 20 20 21 20 18 16 16 16 16 16 15 15 13 12 13 12 12 12 11 11 12 12 13 13 13 12 13 13 13 14 14 14 14 14 14 15
27 27 25 23 23 24 23 22 22 22 22 21 19 18 17 16 17 16 15 15 14 14 14 14 14 13 12 13 14 15 14 14 14 14 14 15 15 15 16 15 15 15 15 16
28 28 26 26 26 25 24 24 24 24 23 22 21 19 18 18 19 19 18 17 16 15 15 15 15 14 14 15 16 16 16 16 16 16 16 16 16 17 17 16 17 17 17 17
29 29 29 28 27 27 26 24 25 24 24 24 22 20 20 21 21 20 19 18 17 17 18 18 17 17 17 17 17 18 17 17 17 17 18 18 18 18 17 17 18 18 18 18
31 30 29 29 28 29 27 25 26 27 27 26 25 23 22 22 22 22 21 21 20 19 19 19 20 20 21 20 19 18 19 19 18 18 19 20 19 18 18 19 19 19 20 20
32 31 31 30 30 29 27 27 26 27 27 27 27 26 24 24 23 23 23 23 22 21 21 21 22 22 22 22 20 20 20 20 20 20 20 20 20 20 20 20 20 21 22 21
31 31 31 31 31 31 28 27 27 28 28 28 27 26 26 26 26 25 25 25 25 24 23 22 23 23 23 24 23 22 22 22 21 21 21 22 21 21 21 21 22 23 23 23
31 31 30 31 32 32 29 28 27 28 28 27 27 27 27 28 28 28 27 27 26 25 25 24 24 24 25 24 24 24 23 23 23 23 23 23 23 23 23 23 23 24 25 24
31 31 31 31 32 31 29 29 28 28 29 28 28 28 28 28 28 28 28 28 27 26 26 26 26 26 26 26 26 26 26 25 26 25 25 25 25 25 24 24 25 25 26 26
32 31 31 33 32 31 30 29 29 30 31 30 30 29 29 29 29 28 28 27 27 27 27 27 26 27 27 27 28 28 28 28 28 27 26 27 26 26 26 26 26 27 27 27
31 31 33 33 33 33 32 31 31 31 30 29 28 29 31 31 31 29 28 28 28 28 28 28 28 28 29 29 29 29 29 29 29 28 28 28 27 27 27 28 29 29 28 29
31 32 33 33 33 34 34 34 34 33 32 32 32 31 30 31 31 31 31 30 29 29 30 30 30 30 30 30 30 30 30 30 29 29 29 28 29 28 29 29 30 30 30 30
32 33 34 33 33 33 34 34 34 35 34 34 34 33 33 31 30 31 31 31 31 31 31 32 31 31 31 31 31 31 30 30 30 29 29 29 29 29 30 30 31 31 31 31
Wind_Direction
184 181 178 175 180 179 160 167 168 119 4 15 26 17 16 26 43 52 50 46 43 45 50 47 41 41 46 47 47 50 49 53 61 63 56 51 53 51 48 43 46 47 45 38
194 186 181 190 195 199 193 188 185 194 250 354 352 6 3 23 31 44 47 45 43 37 43 42 37 37 42 47 46 46 45 53 62 61 53 48 46 47 45 43 42 40 37 29
197 190 200 209 216 207 216 204 188 192 210 286 321 339 348 8 13 19 21 27 36 30 26 29 35 35 36 44 45 44 43 53 56 52 46 44 43 40 36 35 36 32 24 14
203 198 210 216 225 229 225 218 197 206 221 250 264 295 316 330 342 351 359 11 29 31 21 16 29 33 33 36 38 39 41 42 42 42 41 36 36 29 26 25 24 21 17 12
204 205 214 226 230 231 229 235 229 219 235 256 255 262 256 282 309 328 347 359 9 14 16 18 29 35 32 28 32 32 33 33 33 32 29 27 24 22 20 19 14 10 5 3
209 210 212 218 227 233 227 238 249 242 243 251 254 246 229 256 298 317 329 341 350 348 345 350 8 25 26 20 22 23 25 24 20 18 18 17 18 17 14 11 5 1 358 355
214 214 214 216 223 231 230 234 237 243 246 249 249 243 244 252 276 302 312 317 329 333 332 338 356 12 15 12 12 13 13 10 7 4 5 4 4 3 2 355 352 353 349 348
214 211 212 216 226 231 235 241 245 253 255 260 251 250 248 249 262 274 283 291 307 313 320 322 335 348 359 359 358 0 359 356 355 353 353 353 353 349 347 344 342 341 338 337
217 214 212 217 224 229 236 243 250 260 263 262 258 259 248 244 253 261 267 278 297 309 306 304 314 329 342 341 340 345 344 339 336 337 339 339 338 336 330 330 332 330 328 327
222 221 217 220 223 226 233 242 248 254 265 262 258 260 254 254 259 260 262 273 282 293 291 298 306 316 323 323 323 323 326 324 322 325 329 327 324 324 323 322 321 320 323 322
226 229 224 221 223 227 231 236 244 252 258 258 257 258 256 258 258 260 264 272 277 282 283 289 295 300 305 305 310 310 313 313 316 317 315 314 314 317 315 313 314 315 316 318
230 232 228 223 225 229 232 231 239 249 254 255 254 252 256 259 260 264 265 262 263 266 276 287 290 296 298 294 294 296 299 302 305 306 306 307 306 305 310 305 308 311 312 315
234 236 232 227 227 232 233 231 238 247 252 254 256 254 257 259 260 265 265 262 267 270 277 286 284 289 298 291 287 288 293 295 296 298 301 301 303 303 306 302 304 307 309 311
232 236 234 230 231 236 235 235 238 243 252 256 256 254 252 255 257 263 267 270 272 275 281 284 284 289 294 291 286 286 290 290 290 292 295 298 298 299 303 301 300 303 306 308
233 236 236 233 234 234 235 237 238 242 250 253 254 254 250 252 258 263 266 268 267 270 275 279 282 284 288 289 287 285 287 287 287 287 289 294 295 296 299 297 297 300 302 304
238 238 238 235 233 233 235 240 239 241 245 250 252 254 253 251 254 260 266 267 270 274 277 280 283 282 285 287 286 284 282 283 284 286 287 291 292 293 294 295 296 298 300 301
242 242 240 237 234 234 236 239 240 241 244 247 250 253 254 254 254 259 264 267 271 276 276 277 282 284 286 287 286 283 282 280 281 283 286 287 290 291 291 292 296 297 298 300
243 244 243 242 237 237 237 237 240 242 244 247 249 250 251 253 255 260 264 267 270 275 277 279 280 282 284 285 283 280 279 279 278 280 283 285 287 289 289 290 292 295 297 299
241 241 241 241 238 237 236 236 238 241 244 247 249 250 252 253 256 260 262 265 270 273 276 279 280 281 282 283 282 281 280 279 278 280 281 282 285 286 286 287 290 293 294 297
241 241 241 241 241 240 237 236 238 240 243 245 247 251 253 253 256 260 261 264 265 269 273 277 278 279 279 279 278 278 280 281 281 281 280 280 280 281 283 286 288 290 292 294
241 241 241 242 243 242 240 239 239 241 243 245 247 250 252 256 257 259 261 261 264 268 272 274 276 278 278 278 279 279 279 281 279 279 278 279 282 283 284 285 287 288 290 291
242 243 243 243 244 241 242 244 242 244 245 247 249 250 254 257 258 259 261 263 263 266 270 272 273 275 276 276 277 277 276 277 277 277 277 278 280 282 283 285 287 290 291 291
245 245 246 246 246 246 245 244 244 244 247 249 251 253 257 257 258 259 260 262 262 264 268 271 272 273 274 275 275 276 277 276 277 275 275 276 278 279 281 284 287 289 291 292
246 246 245 246 247 248 246 244 243 244 247 250 253 255 256 256 257 260 260 261 261 265 268 271 272 272 274 276 276 276 276 276 277 276 274 274 275 278 281 283 286 288 289 290
246 245 246 248 248 248 247 246 246 247 249 253 255 258 258 257 258 259 260 261 262 264 266 269 272 272 274 276 276 274 275 275 277 277 274 274 275 277 281 283 285 287 287 289
245 246 246 247 248 247 246 245 249 251 253 254 256 258 259 258 258 259 260 262 264 264 266 268 270 272 273 275 276 275 273 274 276 276 274 274 276 278 281 283 285 286 287 287
Height
5917 5919 5919 5919 5920 5920 5920 5920 5920 5921 5921 5920 5920 5920 5921 5920 5920 5920 5919 5919 5918 5917 5916 5915 5914 5913 5911 5910 5909 5908 5907 5906 5905 5905 5904 5903 5903 5902 5902 5901 5900 5900 5899 5898
5916 5917 5918 5918 5919 5919 5919 5919 5919 5920 5920 5920 5920 5920 5920 5920 5920 5920 5920 5919 5919 5918 5917 5916 5915 5914 5913 5911 5910 5909 5908 5907 5906 5906 5905 5904 5903 5903 5902 5901 5901 5900 5899 5898
5914 5917 5916 5917 5917 5917 5918 5918 5919 5920 5919 5919 5920 5920 5920 5920 5920 5920 5920 5919 5918 5918 5918 5917 5915 5914 5913 5912 5911 5910 5909 5908 5907 5906 5905 5904 5904 5903 5902 5902 5901 5900 5899 5898
5911 5913 5914 5915 5916 5916 5916 5917 5918 5919 5919 5918 5919 5919 5919 5918 5919 5919 5919 5919 5918 5918 5917 5916 5915 5914 5913 5913 5912 5911 5909 5908 5907 5907 5906 5905 5904 5903 5903 5902 5901 5900 5899 5898
5909 5911 5912 5913 5915 5916 5916 5917 5917 5918 5918 5918 5918 5918 5918 5917 5917 5918 5918 5918 5917 5917 5916 5916 5915 5914 5913 5912 5911 5910 5909 5908 5907 5907 5906 5905 5904 5903 5902 5901 5901 5900 5898 5897
5907 5908 5910 5911 5913 5914 5915 5916 5915 5915 5916 5917 5917 5917 5917 5916 5916 5916 5916 5916 5916 5916 5915 5915 5914 5913 5913 5912 5911 5910 5909 5908 5907 5906 5906 5905 5904 5903 5902 5901 5900 5899 5898 5897
5903 5905 5907 5909 5910 5912 5912 5913 5914 5914 5914 5915 5915 5915 5915 5914 5914 5914 5914 5915 5914 5915 5914 5914 5913 5912 5912 5911 5910 5909 5908 5908 5907 5906 5905 5904 5904 5903 5902 5901 5900 5898 5897 5896
5900 5902 5904 5906 5907 5908 5909 5911 5912 5912 5912 5913 5913 5912 5914 5913 5912 5912 5912 5912 5913 5913 5912 5912 5912 5911 5910 5910 5909 5909 5908 5907 5906 5905 5904 5904 5903 5902 5901 5899 5898 5897 5896 5894
5896 5899 5902 5903 5905 5906 5907 5908 5909 5910 5909 5910 5910 5911 5911 5910 5910 5910 5910 5910 5910 5911 5911 5911 5910 5910 5909 5909 5908 5907 5906 5905 5905 5904 5903 5902 5902 5901 5899 5898 5897 5896 5894 5893
5892 5895 5898 5900 5902 5903 5904 5905 5906 5906 5906 5906 5907 5908 5908 5907 5907 5908 5908 5908 5908 5909 5909 5909 5909 5908 5908 5907 5907 5906 5905 5904 5903 5902 5901 5901 5900 5899 5898 5897 5895 5894 5892 5890
5888 5891 5894 5895 5896 5898 5900 5901 5901 5902 5903 5903 5903 5906 5905 5904 5904 5905 5905 5905 5906 5906 5906 5907 5907 5906 5906 5905 5905 5904 5904 5902 5901 5900 5900 5899 5898 5897 5896 5895 5893 5892 5890 5888
5883 5886 5888 5891 5893 5894 5896 5896 5898 5899 5899 5899 5900 5904 5901 5901 5901 5901 5902 5902 5903 5903 5904 5904 5904 5904 5904 5903 5903 5903 5902 5901 5900 5899 5898 5896 5895 5894 5893 5892 5890 5889 5887 5885
5878 5880 5883 5887 5890 5891 5891 5892 5893 5894 5894 5895 5896 5900 5898 5898 5898 5898 5898 5899 5900 5901 5901 5901 5901 5901 5900 5900 5900 5900 5899 5898 5897 5896 5895 5894 5892 5891 5890 5889 5887 5885 5884 5882
5872 5875 5878 5881 5883 5885 5886 5888 5889 5890 5890 5891 5892 5894 5894 5894 5895 5895 5895 5896 5897 5898 5898 5897 5897 5897 5897 5896 5896 5896 5896 5895 5894 5893 5892 5890 5889 5888 5886 5885 5884 5882 5880 5878
5867 5869 5872 5875 5877 5879 5881 5883 5884 5885 5885 5887 5888 5889 5890 5891 5891 5891 5892 5893 5894 5894 5894 5894 5894 5894 5894 5893 5893 5892 5891 5891 5890 5889 5888 5887 5885 5884 5883 5881 5880 5878 5876 5874
5861 5864 5866 5869 5871 5873 5875 5877 5878 5880 5881 5882 5883 5884 5885 5885 5886 5887 5887 5888 5890 5890 5890 5890 5890 5890 5890 5889 5888 5888 5887 5887 5886 5885 5884 5882 5881 5880 5878 5877 5875 5874 5872 5870
5855 5857 5860 5863 5865 5867 5869 5872 5873 5874 5875 5877 5878 5880 5880 5880 5881 5882 5884 5884 5884 5885 5885 5885 5885 5885 5885 5884 5884 5883 5882 5882 5881 5880 5879 5878 5876 5875 5873 5872 5870 5869 5867 5864
5848 5850 5853 5855 5859 5860 5866 5866 5867 5868 5870 5871 5872 5873 5874 5875 5876 5877 5879 5879 5879 5879 5880 5879 5879 5879 5879 5879 5878 5878 5877 5876 5875 5875 5874 5872 5871 5870 5868 5867 5865 5863 5861 5859
5841 5843 5845 5848 5850 5853 5857 5859 5860 5861 5863 5864 5866 5867 5868 5869 5871 5872 5873 5873 5874 5874 5874 5874 5874 5873 5873 5872 5872 5871 5871 5870 5869 5868 5867 5866 5865 5864 5862 5861 5859 5857 5855 5853
5833 5835 5838 5840 5842 5845 5851 5852 5853 5856 5856 5858 5859 5861 5862 5863 5865 5866 5867 5867 5868 5869 5868 5868 5867 5867 5867 5866 5865 5865 5864 5863 5863 5862 5861 5860 5858 5857 5856 5854 5853 5851 5849 5847
5826 5828 5830 5832 5834 5838 5842 5844 5847 5849 5851 5852 5853 5854 5856 5857 5859 5860 5860 5861 5861 5862 5862 5862 5861 5860 5859 5859 5859 5858 5858 5856 5855 5855 5854 5853 5852 5850 5849 5848 5846 5844 5842 5840
5817 5820 5822 5824 5827 5832 5835 5837 5839 5841 5843 5844 5846 5847 5848 5849 5850 5852 5853 5853 5854 5854 5854 5854 5854 5853 5853 5852 5852 5851 5851 5850 5849 5848 5847 5846 5845 5843 5842 5840 5839 5837 5835 5833
5810 5813 5815 5818 5821 5823 5826 5829 5831 5833 5835 5836 5838 5840 5840 5841 5842 5843 5845 5845 5846 5846 5847 5847 5847 5846 5845 5845 5844 5844 5842 5841 5840 5839 5839 5838 5837 5836 5834 5833 5831 5829 5827 5825
5802 5804 5807 5809 5812 5815 5818 5820 5822 5825 5827 5828 5830 5832 5833 5834 5835 5836 5837 5837 5837 5838 5839 5839 5839 5838 5837 5837 5836 5835 5834 5833 5831 5831 5830 5829 5828 5828 5827 5825 5824 5822 5819 5817
5794 5796 5798 5800 5803 5806 5808 5811 5814 5816 5818 5820 5822 5823 5823 5825 5826 5827 5828 5829 5829 5829 5830 5829 5829 5829 5829 5828 5827 5826 5825 5824 5823 5822 5821 5820 5819 5819 5818 5817 5815 5813 5811 5808
5785 5787 5790 5792 5795 5797 5800 5802 5804 5806 5809 5810 5813 5814 5815 5816 5816 5817 5818 5819 5819 5819 5819 5820 5820 5820 5819 5818 5817 5816 5815 5814 5814 5813 5812 5812 5811 5810 5809 5808 5806 5804 5802 5799